Time,TemperatureF,DewpointF,PressureIn,WindDirection,WindDirectionDegrees,WindSpeedMPH,WindSpeedGustMPH,Humidity,HourlyPrecipIn,Conditions,Clouds,dailyrainin,SoftwareType,DateUTC
2013-01-16 00:00:00,35.0,35.0,30.14,WNW,292,5.0,6.0,100,-0.09,,,0.00,Weather View 32 v70,2013-01-16 05:00:00,
2013-01-16 00:02:00,35.0,35.0,30.14,West,270,2.0,6.0,100,-0.09,,,0.00,Weather View 32 v70,2013-01-16 05:02:00,
2013-01-16 00:07:00,35.0,35.0,30.15,WSW,248,3.0,6.0,100,-0.09,,,0.01,Weather View 32 v70,2013-01-16 05:07:00,
2013-01-16 00:12:00,35.0,35.0,30.15,WNW,292,3.0,6.0,100,-0.09,,,0.01,Weather View 32 v70,2013-01-16 05:12:00,
2013-01-16 00:17:00,35.0,35.0,30.14,WNW,292,2.0,6.0,100,-0.08,,,0.02,Weather View 32 v70,2013-01-16 05:17:00,
2013-01-16 00:22:00,34.0,34.0,30.14,NW,315,3.0,7.0,100,-0.08,,,0.03,Weather View 32 v70,2013-01-16 05:22:00,
2013-01-16 00:27:00,34.0,34.0,30.14,WNW,292,5.0,7.0,100,-0.08,,,0.03,Weather View 32 v70,2013-01-16 05:27:00,
2013-01-16 00:32:00,34.0,34.0,30.14,NW,315,2.0,7.0,100,-0.07,,,0.04,Weather View 32 v70,2013-01-16 05:32:00,
2013-01-16 00:37:00,34.0,34.0,30.13,WNW,292,2.0,7.0,100,-0.06,,,0.05,Weather View 32 v70,2013-01-16 05:37:00,
2013-01-16 00:42:00,34.0,34.0,30.13,WNW,292,3.0,7.0,100,-0.05,,,0.06,Weather View 32 v70,2013-01-16 05:42:00,
2013-01-16 00:47:00,34.0,34.0,30.13,WNW,292,3.0,8.0,100,-0.05,,,0.07,Weather View 32 v70,2013-01-16 05:47:00,
2013-01-16 00:52:00,34.0,34.0,30.13,WNW,292,4.0,8.0,100,-0.05,,,0.07,Weather View 32 v70,2013-01-16 05:52:00,
2013-01-16 00:57:00,34.0,34.0,30.12,NW,315,2.0,8.0,100,-0.05,,,0.08,Weather View 32 v70,2013-01-16 05:57:00,
2013-01-16 01:02:00,34.0,34.0,30.12,NNW,338,5.0,8.0,100,0.09,,,0.09,Weather View 32 v70,2013-01-16 06:02:00,
2013-01-16 01:07:00,34.0,34.0,30.12,North,0,2.0,8.0,100,0.08,,,0.09,Weather View 32 v70,2013-01-16 06:07:00,
2013-01-16 01:12:00,34.0,34.0,30.12,WNW,292,2.0,8.0,100,0.09,,,0.10,Weather View 32 v70,2013-01-16 06:12:00,
2013-01-16 01:17:00,34.0,34.0,30.12,NNE,22,2.0,8.0,100,0.08,,,0.10,Weather View 32 v70,2013-01-16 06:17:00,
2013-01-16 01:22:00,34.0,34.0,30.12,NW,315,3.0,9.0,100,0.09,,,0.11,Weather View 32 v70,2013-01-16 06:22:00,
2013-01-16 01:27:00,34.0,34.0,30.11,NW,315,5.0,9.0,100,0.08,,,0.11,Weather View 32 v70,2013-01-16 06:27:00,
2013-01-16 01:32:00,34.0,34.0,30.11,North,0,6.0,9.0,100,0.08,,,0.12,Weather View 32 v70,2013-01-16 06:32:00,
2013-01-16 01:37:00,34.0,34.0,30.11,NNW,338,3.0,9.0,100,0.07,,,0.13,Weather View 32 v70,2013-01-16 06:37:00,
2013-01-16 01:42:00,34.0,34.0,30.10,WNW,292,4.0,9.0,100,0.07,,,0.13,Weather View 32 v70,2013-01-16 06:42:00,
2013-01-16 01:47:00,34.0,34.0,30.10,WNW,292,6.0,9.0,100,0.07,,,0.14,Weather View 32 v70,2013-01-16 06:47:00,
2013-01-16 01:52:00,34.0,34.0,30.11,WNW,292,2.0,9.0,100,0.08,,,0.15,Weather View 32 v70,2013-01-16 06:52:00,
2013-01-16 01:57:00,34.0,34.0,30.10,WNW,292,4.0,9.0,100,0.07,,,0.15,Weather View 32 v70,2013-01-16 06:57:00,
2013-01-16 02:02:00,34.0,34.0,30.10,NW,315,3.0,9.0,100,0.07,,,0.16,Weather View 32 v70,2013-01-16 07:02:00,
2013-01-16 02:07:00,34.0,34.0,30.10,WNW,292,4.0,9.0,100,0.08,,,0.17,Weather View 32 v70,2013-01-16 07:07:00,
2013-01-16 02:12:00,34.0,34.0,30.10,West,270,3.0,9.0,100,0.07,,,0.18,Weather View 32 v70,2013-01-16 07:12:00,
2013-01-16 02:17:00,34.0,34.0,30.10,WNW,292,5.0,9.0,100,0.08,,,0.18,Weather View 32 v70,2013-01-16 07:17:00,
2013-01-16 02:22:00,33.0,33.0,30.10,NW,315,5.0,9.0,100,0.08,,,0.19,Weather View 32 v70,2013-01-16 07:22:00,
2013-01-16 02:27:00,34.0,34.0,30.10,WNW,292,3.0,9.0,100,0.09,,,0.20,Weather View 32 v70,2013-01-16 07:27:00,
2013-01-16 02:32:00,33.0,33.0,30.09,North,0,3.0,9.0,100,0.09,,,0.21,Weather View 32 v70,2013-01-16 07:32:00,
2013-01-16 02:37:00,33.0,33.0,30.09,NW,315,4.0,8.0,100,0.10,,,0.23,Weather View 32 v70,2013-01-16 07:37:00,
2013-01-16 02:42:00,33.0,33.0,30.08,North,0,4.0,8.0,100,0.11,,,0.24,Weather View 32 v70,2013-01-16 07:42:00,
2013-01-16 02:47:00,33.0,33.0,30.08,West,270,3.0,10.0,100,0.12,,,0.26,Weather View 32 v70,2013-01-16 07:47:00,
2013-01-16 02:52:00,33.0,33.0,30.07,NW,315,8.0,10.0,100,0.12,,,0.27,Weather View 32 v70,2013-01-16 07:52:00,
2013-01-16 02:57:00,33.0,33.0,30.07,NNW,338,3.0,11.0,100,0.13,,,0.28,Weather View 32 v70,2013-01-16 07:57:00,
2013-01-16 03:02:00,33.0,33.0,30.06,NNW,338,4.0,11.0,100,0.13,,,0.29,Weather View 32 v70,2013-01-16 08:02:00,
2013-01-16 03:07:00,33.0,33.0,30.07,West,270,3.0,11.0,100,0.13,,,0.31,Weather View 32 v70,2013-01-16 08:07:00,
2013-01-16 03:12:00,33.0,33.0,30.07,NW,315,5.0,11.0,100,0.15,,,0.32,Weather View 32 v70,2013-01-16 08:12:00,
2013-01-16 03:17:00,33.0,33.0,30.07,NNW,338,4.0,11.0,100,0.15,,,0.34,Weather View 32 v70,2013-01-16 08:17:00,
2013-01-16 03:22:00,33.0,33.0,30.08,West,270,7.0,11.0,100,0.16,,,0.35,Weather View 32 v70,2013-01-16 08:22:00,
2013-01-16 03:27:00,33.0,33.0,30.06,NNW,338,5.0,11.0,100,0.16,,,0.36,Weather View 32 v70,2013-01-16 08:27:00,
2013-01-16 03:32:00,33.0,33.0,30.06,WNW,292,6.0,11.0,100,0.16,,,0.37,Weather View 32 v70,2013-01-16 08:32:00,
2013-01-16 03:37:00,33.0,33.0,30.07,NW,315,5.0,11.0,100,0.16,,,0.39,Weather View 32 v70,2013-01-16 08:37:00,
2013-01-16 03:42:00,33.0,33.0,30.06,NW,315,6.0,11.0,100,0.15,,,0.39,Weather View 32 v70,2013-01-16 08:42:00,
2013-01-16 03:47:00,33.0,33.0,30.05,NW,315,8.0,11.0,100,0.15,,,0.41,Weather View 32 v70,2013-01-16 08:47:00,
2013-01-16 03:52:00,33.0,33.0,30.05,NNW,338,5.0,11.0,100,0.15,,,0.42,Weather View 32 v70,2013-01-16 08:52:00,
2013-01-16 03:57:00,33.0,33.0,30.06,WNW,292,4.0,10.0,100,0.15,,,0.43,Weather View 32 v70,2013-01-16 08:57:00,
2013-01-16 04:02:00,33.0,33.0,30.05,NW,315,1.0,10.0,100,0.14,,,0.43,Weather View 32 v70,2013-01-16 09:02:00,
2013-01-16 04:07:00,33.0,33.0,30.05,NW,315,4.0,9.0,100,0.13,,,0.44,Weather View 32 v70,2013-01-16 09:07:00,
2013-01-16 04:12:00,33.0,33.0,30.05,NNW,338,4.0,9.0,100,0.12,,,0.44,Weather View 32 v70,2013-01-16 09:12:00,
2013-01-16 04:17:00,33.0,33.0,30.04,WNW,292,2.0,9.0,100,0.10,,,0.44,Weather View 32 v70,2013-01-16 09:17:00,
2013-01-16 04:22:00,33.0,33.0,30.05,NNW,338,4.0,9.0,100,0.09,,,0.44,Weather View 32 v70,2013-01-16 09:22:00,
2013-01-16 04:27:00,33.0,33.0,30.05,NW,315,3.0,9.0,100,0.08,,,0.44,Weather View 32 v70,2013-01-16 09:27:00,
2013-01-16 04:32:00,33.0,33.0,30.05,North,0,3.0,9.0,100,0.07,,,0.44,Weather View 32 v70,2013-01-16 09:32:00,
2013-01-16 04:37:00,33.0,33.0,30.04,NNE,22,4.0,9.0,100,0.05,,,0.44,Weather View 32 v70,2013-01-16 09:37:00,
2013-01-16 04:42:00,33.0,33.0,30.04,NNE,22,3.0,8.0,100,0.06,,,0.45,Weather View 32 v70,2013-01-16 09:42:00,
2013-01-16 04:47:00,33.0,33.0,30.04,North,0,0.0,8.0,100,0.05,,,0.46,Weather View 32 v70,2013-01-16 09:47:00,
2013-01-16 04:52:00,33.0,33.0,30.03,North,0,0.0,8.0,100,0.05,,,0.47,Weather View 32 v70,2013-01-16 09:52:00,
2013-01-16 04:57:00,33.0,33.0,30.03,NNE,22,0.0,8.0,100,0.04,,,0.47,Weather View 32 v70,2013-01-16 09:57:00,
2013-01-16 05:02:00,33.0,33.0,30.02,WNW,292,0.0,8.0,100,0.05,,,0.48,Weather View 32 v70,2013-01-16 10:02:00,
2013-01-16 05:07:00,33.0,33.0,30.02,North,0,0.0,8.0,100,0.04,,,0.48,Weather View 32 v70,2013-01-16 10:07:00,
2013-01-16 05:12:00,33.0,33.0,30.02,North,0,0.0,8.0,100,0.04,,,0.48,Weather View 32 v70,2013-01-16 10:12:00,
2013-01-16 05:17:00,33.0,33.0,30.03,West,270,0.0,6.0,100,0.04,,,0.48,Weather View 32 v70,2013-01-16 10:17:00,
2013-01-16 05:22:00,33.0,33.0,30.02,North,0,0.0,6.0,100,0.05,,,0.49,Weather View 32 v70,2013-01-16 10:22:00,
2013-01-16 05:27:00,33.0,33.0,30.02,NNE,22,0.0,6.0,100,0.05,,,0.49,Weather View 32 v70,2013-01-16 10:27:00,
2013-01-16 05:32:00,33.0,33.0,30.02,North,0,0.0,6.0,100,0.05,,,0.49,Weather View 32 v70,2013-01-16 10:32:00,
2013-01-16 05:37:00,33.0,33.0,30.02,North,0,0.0,6.0,100,0.05,,,0.49,Weather View 32 v70,2013-01-16 10:37:00,
2013-01-16 05:42:00,33.0,33.0,30.01,NNW,338,0.0,3.0,100,0.05,,,0.50,Weather View 32 v70,2013-01-16 10:42:00,
2013-01-16 05:47:00,33.0,33.0,30.01,WNW,292,0.0,0.0,100,0.04,,,0.50,Weather View 32 v70,2013-01-16 10:47:00,
2013-01-16 05:52:00,33.0,33.0,30.01,NNE,22,0.0,0.0,100,0.05,,,0.51,Weather View 32 v70,2013-01-16 10:52:00,
2013-01-16 05:57:00,33.0,33.0,30.01,NNE,22,0.0,0.0,100,0.04,,,0.51,Weather View 32 v70,2013-01-16 10:57:00,
2013-01-16 06:02:00,33.0,33.0,30.02,NW,315,0.0,0.0,100,0.04,,,0.52,Weather View 32 v70,2013-01-16 11:02:00,
2013-01-16 06:07:00,33.0,33.0,30.01,WNW,292,0.0,0.0,100,0.04,,,0.52,Weather View 32 v70,2013-01-16 11:07:00,
2013-01-16 06:12:00,33.0,33.0,30.00,NNW,338,0.0,0.0,100,0.05,,,0.53,Weather View 32 v70,2013-01-16 11:12:00,
2013-01-16 06:17:00,33.0,33.0,29.99,North,0,0.0,0.0,100,0.05,,,0.53,Weather View 32 v70,2013-01-16 11:17:00,
2013-01-16 06:22:00,33.0,33.0,30.00,NNE,22,0.0,0.0,100,0.04,,,0.53,Weather View 32 v70,2013-01-16 11:22:00,
2013-01-16 06:27:00,33.0,33.0,30.00,NNW,338,0.0,0.0,100,0.04,,,0.53,Weather View 32 v70,2013-01-16 11:27:00,
2013-01-16 06:32:00,33.0,33.0,30.01,West,270,0.0,0.0,100,0.04,,,0.53,Weather View 32 v70,2013-01-16 11:32:00,
2013-01-16 06:37:00,33.0,33.0,30.00,NNE,22,0.0,0.0,100,0.04,,,0.53,Weather View 32 v70,2013-01-16 11:37:00,
2013-01-16 06:42:00,33.0,33.0,30.01,NNW,338,0.0,0.0,100,0.04,,,0.54,Weather View 32 v70,2013-01-16 11:42:00,
2013-01-16 06:47:00,33.0,33.0,30.01,NNW,338,0.0,0.0,100,0.04,,,0.54,Weather View 32 v70,2013-01-16 11:47:00,
2013-01-16 06:52:00,33.0,33.0,30.01,North,0,0.0,0.0,100,0.03,,,0.54,Weather View 32 v70,2013-01-16 11:52:00,
2013-01-16 06:59:00,33.0,33.0,30.01,NNW,338,0.0,0.0,100,0.02,,,0.54,Weather View 32 v70,2013-01-16 11:59:00,
2013-01-16 07:04:00,33.0,33.0,30.01,WNW,292,0.0,0.0,100,0.02,,,0.54,Weather View 32 v70,2013-01-16 12:04:00,
2013-01-16 07:09:00,33.0,33.0,30.00,NNW,338,0.0,0.0,100,0.02,,,0.54,Weather View 32 v70,2013-01-16 12:09:00,
2013-01-16 07:14:00,33.0,33.0,30.00,WNW,292,0.0,0.0,100,0.01,,,0.54,Weather View 32 v70,2013-01-16 12:14:00,
2013-01-16 07:19:00,33.0,33.0,30.00,NW,315,0.0,0.0,100,0.02,,,0.55,Weather View 32 v70,2013-01-16 12:19:00,
2013-01-16 07:24:00,33.0,33.0,30.00,NW,315,0.0,0.0,100,0.02,,,0.55,Weather View 32 v70,2013-01-16 12:24:00,
2013-01-16 07:29:00,33.0,33.0,30.00,NNW,338,0.0,0.0,100,0.02,,,0.55,Weather View 32 v70,2013-01-16 12:29:00,
2013-01-16 07:39:00,33.0,33.0,29.99,NW,315,0.0,0.0,100,0.02,,,0.55,Weather View 32 v70,2013-01-16 12:39:00,
2013-01-16 07:44:00,33.0,33.0,29.98,NNE,22,0.0,0.0,100,0.01,,,0.55,Weather View 32 v70,2013-01-16 12:44:00,
2013-01-16 07:53:00,33.0,33.0,29.98,WSW,248,0.0,0.0,100,0.01,,,0.55,Weather View 32 v70,2013-01-16 12:53:00,
2013-01-16 07:58:00,33.0,33.0,29.98,NW,315,0.0,0.0,100,0.01,,,0.55,Weather View 32 v70,2013-01-16 12:58:00,
2013-01-16 08:03:00,33.0,33.0,29.98,NNW,338,0.0,0.0,100,0.01,,,0.55,Weather View 32 v70,2013-01-16 13:03:00,
2013-01-16 08:08:00,33.0,33.0,29.98,WNW,292,0.0,0.0,100,0.01,,,0.55,Weather View 32 v70,2013-01-16 13:08:00,
2013-01-16 08:13:00,33.0,33.0,29.97,WNW,292,0.0,0.0,100,0.01,,,0.55,Weather View 32 v70,2013-01-16 13:13:00,
2013-01-16 08:18:00,33.0,33.0,29.96,West,270,0.0,0.0,100,0.01,,,0.55,Weather View 32 v70,2013-01-16 13:18:00,
2013-01-16 08:23:00,33.0,33.0,29.95,NW,315,0.0,0.0,100,0.00,,,0.55,Weather View 32 v70,2013-01-16 13:23:00,
2013-01-16 08:28:00,33.0,33.0,29.94,North,0,0.0,0.0,100,0.00,,,0.55,Weather View 32 v70,2013-01-16 13:28:00,
2013-01-16 08:33:00,33.0,33.0,29.95,NW,315,0.0,0.0,100,0.01,,,0.56,Weather View 32 v70,2013-01-16 13:33:00,
2013-01-16 08:38:00,33.0,33.0,29.95,West,270,0.0,0.0,100,0.01,,,0.56,Weather View 32 v70,2013-01-16 13:38:00,
2013-01-16 08:43:00,33.0,33.0,29.93,North,0,0.0,0.0,100,0.02,,,0.57,Weather View 32 v70,2013-01-16 13:43:00,
2013-01-16 08:48:00,33.0,33.0,29.91,North,0,0.0,0.0,100,0.02,,,0.57,Weather View 32 v70,2013-01-16 13:48:00,
2013-01-16 08:53:00,33.0,33.0,29.90,NNE,22,0.0,0.0,100,0.02,,,0.57,Weather View 32 v70,2013-01-16 13:53:00,
2013-01-16 08:58:00,33.0,33.0,29.92,West,270,0.0,0.0,100,0.02,,,0.57,Weather View 32 v70,2013-01-16 13:58:00,
2013-01-16 09:03:00,33.0,33.0,29.93,West,270,0.0,0.0,100,0.02,,,0.57,Weather View 32 v70,2013-01-16 14:03:00,
2013-01-16 09:08:00,33.0,33.0,29.94,WNW,292,0.0,0.0,100,0.02,,,0.57,Weather View 32 v70,2013-01-16 14:08:00,
2013-01-16 09:13:00,33.0,33.0,29.94,SW,225,0.0,0.0,100,0.02,,,0.57,Weather View 32 v70,2013-01-16 14:13:00,
2013-01-16 09:18:00,33.0,33.0,29.95,West,270,0.0,0.0,100,0.02,,,0.57,Weather View 32 v70,2013-01-16 14:18:00,
2013-01-16 09:23:00,33.0,33.0,29.94,WNW,292,0.0,0.0,100,0.02,,,0.57,Weather View 32 v70,2013-01-16 14:23:00,
2013-01-16 09:28:00,33.0,33.0,29.93,WNW,292,0.0,0.0,100,0.02,,,0.57,Weather View 32 v70,2013-01-16 14:28:00,
2013-01-16 09:33:00,33.0,33.0,29.92,WNW,292,0.0,0.0,100,0.01,,,0.57,Weather View 32 v70,2013-01-16 14:33:00,
2013-01-16 09:38:00,33.0,33.0,29.93,WNW,292,0.0,0.0,100,0.01,,,0.57,Weather View 32 v70,2013-01-16 14:38:00,
2013-01-16 09:43:00,33.0,33.0,29.93,WNW,292,0.0,0.0,100,0.00,,,0.57,Weather View 32 v70,2013-01-16 14:43:00,
2013-01-16 09:48:00,33.0,33.0,29.93,WNW,292,0.0,0.0,100,0.00,,,0.57,Weather View 32 v70,2013-01-16 14:48:00,
2013-01-16 09:53:00,33.0,33.0,29.94,WNW,292,0.0,0.0,100,0.00,,,0.57,Weather View 32 v70,2013-01-16 14:53:00,
2013-01-16 09:58:00,33.0,33.0,29.95,WNW,292,0.0,0.0,100,-0.50,,,0.57,Weather View 32 v70,2013-01-16 14:58:00,
2013-01-16 10:03:00,33.0,33.0,29.96,WNW,292,0.0,0.0,100,0.00,,,0.57,Weather View 32 v70,2013-01-16 15:03:00,
2013-01-16 10:08:00,33.0,33.0,29.96,WNW,292,0.0,0.0,100,-0.50,,,0.58,Weather View 32 v70,2013-01-16 15:08:00,
2013-01-16 10:13:00,34.0,34.0,29.95,WNW,292,0.0,0.0,100,-0.50,,,0.58,Weather View 32 v70,2013-01-16 15:13:00,
2013-01-16 10:18:00,33.0,33.0,29.95,WNW,292,0.0,0.0,100,0.01,,,0.58,Weather View 32 v70,2013-01-16 15:18:00,
2013-01-16 10:23:00,34.0,34.0,29.95,WNW,292,0.0,0.0,100,0.01,,,0.58,Weather View 32 v70,2013-01-16 15:23:00,
2013-01-16 10:28:00,34.0,34.0,29.94,WNW,292,0.0,0.0,100,0.01,,,0.58,Weather View 32 v70,2013-01-16 15:28:00,
2013-01-16 10:33:00,34.0,34.0,29.95,WNW,292,0.0,0.0,100,0.02,,,0.59,Weather View 32 v70,2013-01-16 15:33:00,
2013-01-16 10:38:00,34.0,34.0,29.95,WNW,292,0.0,0.0,100,0.02,,,0.59,Weather View 32 v70,2013-01-16 15:38:00,
2013-01-16 10:43:00,34.0,34.0,29.94,WNW,292,0.0,0.0,100,0.02,,,0.59,Weather View 32 v70,2013-01-16 15:43:00,
2013-01-16 10:48:00,34.0,34.0,29.93,WNW,292,0.0,0.0,100,0.02,,,0.59,Weather View 32 v70,2013-01-16 15:48:00,
2013-01-16 10:53:00,34.0,34.0,29.92,WNW,292,0.0,0.0,100,0.02,,,0.60,Weather View 32 v70,2013-01-16 15:53:00,
2013-01-16 10:58:00,34.0,34.0,29.92,WNW,292,0.0,0.0,100,0.03,,,0.60,Weather View 32 v70,2013-01-16 15:58:00,
2013-01-16 11:03:00,34.0,34.0,29.92,WNW,292,0.0,0.0,100,-0.50,,,0.61,Weather View 32 v70,2013-01-16 16:03:00,
2013-01-16 11:08:00,34.0,34.0,29.92,WNW,292,0.0,0.0,100,-0.51,,,0.61,Weather View 32 v70,2013-01-16 16:08:00,
2013-01-16 11:13:00,34.0,34.0,29.91,WNW,292,0.0,0.0,100,0.03,,,0.61,Weather View 32 v70,2013-01-16 16:13:00,
2013-01-16 11:18:00,34.0,34.0,29.91,WNW,292,3.0,0.0,100,0.04,,,0.62,Weather View 32 v70,2013-01-16 16:18:00,
2013-01-16 11:23:00,34.0,34.0,29.91,WNW,292,2.0,3.0,100,-0.51,,,0.62,Weather View 32 v70,2013-01-16 16:23:00,
2013-01-16 11:28:00,34.0,34.0,29.91,West,270,2.0,4.0,100,0.04,,,0.62,Weather View 32 v70,2013-01-16 16:28:00,
2013-01-16 11:33:00,34.0,34.0,29.91,SW,225,2.0,4.0,100,0.03,,,0.62,Weather View 32 v70,2013-01-16 16:33:00,
2013-01-16 11:38:00,34.0,34.0,29.91,SW,225,2.0,4.0,100,0.04,,,0.63,Weather View 32 v70,2013-01-16 16:38:00,
2013-01-16 11:43:00,34.0,34.0,29.91,SW,225,2.0,5.0,100,0.04,,,0.63,Weather View 32 v70,2013-01-16 16:43:00,
2013-01-16 11:48:00,34.0,34.0,29.90,ESE,112,1.0,5.0,100,0.05,,,0.64,Weather View 32 v70,2013-01-16 16:48:00,
2013-01-16 11:53:00,34.0,34.0,29.88,NNE,22,1.0,5.0,100,-0.53,,,0.64,Weather View 32 v70,2013-01-16 16:53:00,
2013-01-16 11:58:00,34.0,34.0,29.87,ENE,68,2.0,5.0,100,-0.53,,,0.64,Weather View 32 v70,2013-01-16 16:58:00,
2013-01-16 12:03:00,34.0,34.0,29.85,ENE,68,5.0,5.0,100,0.04,,,0.64,Weather View 32 v70,2013-01-16 17:03:00,
2013-01-16 12:08:00,34.0,34.0,29.85,East,90,4.0,6.0,100,-0.54,,,0.65,Weather View 32 v70,2013-01-16 17:08:00,
2013-01-16 12:13:00,34.0,34.0,29.86,East,90,1.0,6.0,100,-0.54,,,0.65,Weather View 32 v70,2013-01-16 17:13:00,
2013-01-16 12:18:00,34.0,34.0,29.88,SSW,202,4.0,6.0,100,0.03,,,0.65,Weather View 32 v70,2013-01-16 17:18:00,
2013-01-16 12:23:00,34.0,34.0,29.87,West,270,2.0,6.0,100,-0.55,,,0.65,Weather View 32 v70,2013-01-16 17:23:00,
2013-01-16 12:28:00,34.0,34.0,29.86,SW,225,1.0,6.0,100,0.03,,,0.65,Weather View 32 v70,2013-01-16 17:28:00,
2013-01-16 12:33:00,34.0,34.0,29.83,NNE,22,1.0,6.0,100,0.04,,,0.66,Weather View 32 v70,2013-01-16 17:33:00,
2013-01-16 12:38:00,34.0,34.0,29.80,NE,45,5.0,6.0,100,-0.56,,,0.66,Weather View 32 v70,2013-01-16 17:38:00,
2013-01-16 12:43:00,34.0,34.0,29.79,East,90,5.0,6.0,100,-0.56,,,0.66,Weather View 32 v70,2013-01-16 17:43:00,
2013-01-16 12:48:00,34.0,34.0,29.79,NNE,22,2.0,6.0,100,-0.57,,,0.66,Weather View 32 v70,2013-01-16 17:48:00,
2013-01-16 12:53:00,34.0,34.0,29.77,NNE,22,6.0,7.0,100,0.02,,,0.66,Weather View 32 v70,2013-01-16 17:53:00,
2013-01-16 12:58:00,34.0,34.0,29.79,West,270,2.0,7.0,100,0.03,,,0.67,Weather View 32 v70,2013-01-16 17:58:00,
2013-01-16 13:03:00,34.0,34.0,29.78,ESE,112,1.0,7.0,100,0.03,,,0.67,Weather View 32 v70,2013-01-16 18:03:00,
2013-01-16 13:08:00,34.0,34.0,29.79,West,270,1.0,7.0,100,0.02,,,0.67,Weather View 32 v70,2013-01-16 18:08:00,
2013-01-16 13:13:00,34.0,34.0,29.84,SW,225,7.0,7.0,100,0.02,,,0.67,Weather View 32 v70,2013-01-16 18:13:00,
2013-01-16 13:18:00,34.0,34.0,29.82,South,180,1.0,12.0,100,0.02,,,0.67,Weather View 32 v70,2013-01-16 18:18:00,
2013-01-16 13:23:00,34.0,34.0,29.80,WSW,248,3.0,12.0,100,0.02,,,0.67,Weather View 32 v70,2013-01-16 18:23:00,
2013-01-16 13:28:00,34.0,34.0,29.76,North,0,5.0,12.0,100,0.02,,,0.67,Weather View 32 v70,2013-01-16 18:28:00,
2013-01-16 13:33:00,34.0,34.0,29.82,SSW,202,7.0,12.0,100,0.01,,,0.67,Weather View 32 v70,2013-01-16 18:33:00,
2013-01-16 13:38:00,34.0,34.0,29.82,SW,225,3.0,12.0,100,0.02,,,0.68,Weather View 32 v70,2013-01-16 18:38:00,
2013-01-16 13:43:00,35.0,35.0,29.85,SW,225,10.0,12.0,100,0.02,,,0.68,Weather View 32 v70,2013-01-16 18:43:00,
2013-01-16 13:48:00,35.0,35.0,29.83,WSW,248,4.0,12.0,100,0.02,,,0.68,Weather View 32 v70,2013-01-16 18:48:00,
2013-01-16 13:53:00,34.0,34.0,29.85,SSW,202,5.0,13.0,100,0.02,,,0.68,Weather View 32 v70,2013-01-16 18:53:00,
2013-01-16 13:58:00,34.0,34.0,29.82,West,270,3.0,13.0,100,0.01,,,0.68,Weather View 32 v70,2013-01-16 18:58:00,
2013-01-16 14:03:00,34.0,34.0,29.85,SW,225,5.0,13.0,100,0.01,,,0.68,Weather View 32 v70,2013-01-16 19:03:00,
2013-01-16 14:08:00,35.0,35.0,29.86,SSE,158,4.0,13.0,100,0.01,,,0.68,Weather View 32 v70,2013-01-16 19:08:00,
2013-01-16 14:13:00,34.0,34.0,29.85,WSW,248,3.0,13.0,100,0.02,,,0.69,Weather View 32 v70,2013-01-16 19:13:00,
2013-01-16 14:18:00,34.0,34.0,29.85,SSW,202,6.0,13.0,100,0.02,,,0.69,Weather View 32 v70,2013-01-16 19:18:00,
2013-01-16 14:23:00,34.0,34.0,29.85,SW,225,5.0,13.0,100,0.02,,,0.69,Weather View 32 v70,2013-01-16 19:23:00,
2013-01-16 14:28:00,34.0,34.0,29.83,SSW,202,1.0,13.0,100,0.02,,,0.69,Weather View 32 v70,2013-01-16 19:28:00,
2013-01-16 14:33:00,35.0,35.0,29.83,West,270,2.0,13.0,100,0.02,,,0.69,Weather View 32 v70,2013-01-16 19:33:00,
2013-01-16 14:38:00,34.0,34.0,29.84,West,270,5.0,13.0,100,0.01,,,0.69,Weather View 32 v70,2013-01-16 19:38:00,
2013-01-16 14:43:00,34.0,34.0,29.81,NNW,338,2.0,13.0,100,0.01,,,0.69,Weather View 32 v70,2013-01-16 19:43:00,
2013-01-16 14:48:00,35.0,35.0,29.83,West,270,2.0,13.0,100,0.01,,,0.69,Weather View 32 v70,2013-01-16 19:48:00,
2013-01-16 14:53:00,35.0,35.0,29.86,SW,225,7.0,11.0,100,0.01,,,0.69,Weather View 32 v70,2013-01-16 19:53:00,
2013-01-16 14:58:00,35.0,35.0,29.83,West,270,1.0,11.0,100,0.01,,,0.69,Weather View 32 v70,2013-01-16 19:58:00,
2013-01-16 15:03:00,35.0,35.0,29.83,West,270,2.0,10.0,100,0.02,,,0.70,Weather View 32 v70,2013-01-16 20:03:00,
2013-01-16 15:08:00,34.0,34.0,29.84,WSW,248,3.0,9.0,100,0.02,,,0.70,Weather View 32 v70,2013-01-16 20:08:00,
2013-01-16 15:13:00,35.0,35.0,29.84,WNW,292,0.0,9.0,100,0.01,,,0.70,Weather View 32 v70,2013-01-16 20:13:00,
2013-01-16 15:18:00,34.0,34.0,29.85,SW,225,3.0,9.0,100,0.01,,,0.70,Weather View 32 v70,2013-01-16 20:18:00,
2013-01-16 15:23:00,35.0,35.0,29.84,SSW,202,1.0,8.0,100,0.01,,,0.70,Weather View 32 v70,2013-01-16 20:23:00,
2013-01-16 15:28:00,35.0,35.0,29.85,SSW,202,1.0,8.0,100,0.01,,,0.70,Weather View 32 v70,2013-01-16 20:28:00,
2013-01-16 15:33:00,35.0,35.0,29.85,NE,45,0.0,8.0,100,0.01,,,0.70,Weather View 32 v70,2013-01-16 20:33:00,
2013-01-16 15:38:00,35.0,35.0,29.85,SSE,158,1.0,8.0,100,0.01,,,0.70,Weather View 32 v70,2013-01-16 20:38:00,
2013-01-16 15:43:00,35.0,35.0,29.84,East,90,0.0,8.0,100,-0.62,,,0.70,Weather View 32 v70,2013-01-16 20:43:00,
2013-01-16 15:48:00,35.0,35.0,29.84,ENE,68,1.0,8.0,100,0.01,,,0.70,Weather View 32 v70,2013-01-16 20:48:00,
2013-01-16 15:53:00,35.0,35.0,29.85,South,180,2.0,8.0,100,0.02,,,0.71,Weather View 32 v70,2013-01-16 20:53:00,
2013-01-16 15:58:00,35.0,35.0,29.85,South,180,3.0,5.0,100,-0.62,,,0.71,Weather View 32 v70,2013-01-16 20:58:00,
2013-01-16 16:03:00,35.0,35.0,29.86,SSE,158,3.0,5.0,100,0.01,,,0.71,Weather View 32 v70,2013-01-16 21:03:00,
2013-01-16 16:08:00,35.0,35.0,29.87,SSW,202,5.0,8.0,100,-0.63,,,0.71,Weather View 32 v70,2013-01-16 21:08:00,
2013-01-16 16:13:00,35.0,35.0,29.87,SW,225,4.0,8.0,100,0.01,,,0.71,Weather View 32 v70,2013-01-16 21:13:00,
2013-01-16 16:18:00,35.0,35.0,29.87,SE,135,3.0,8.0,100,-0.63,,,0.71,Weather View 32 v70,2013-01-16 21:18:00,
2013-01-16 16:23:00,35.0,35.0,29.86,ESE,112,3.0,8.0,100,-0.63,,,0.71,Weather View 32 v70,2013-01-16 21:23:00,
2013-01-16 16:28:00,35.0,35.0,29.85,SE,135,5.0,8.0,100,-0.63,,,0.71,Weather View 32 v70,2013-01-16 21:28:00,
2013-01-16 16:33:00,35.0,35.0,29.86,SSE,158,4.0,8.0,100,0.01,,,0.71,Weather View 32 v70,2013-01-16 21:33:00,
2013-01-16 16:38:00,35.0,35.0,29.87,SSE,158,5.0,8.0,100,0.01,,,0.71,Weather View 32 v70,2013-01-16 21:38:00,
2013-01-16 16:43:00,35.0,35.0,29.86,South,180,3.0,8.0,100,0.01,,,0.71,Weather View 32 v70,2013-01-16 21:43:00,
2013-01-16 16:48:00,35.0,35.0,29.86,SSE,158,2.0,8.0,100,0.01,,,0.71,Weather View 32 v70,2013-01-16 21:48:00,
2013-01-16 16:53:00,35.0,35.0,29.86,ESE,112,3.0,8.0,100,0.01,,,0.72,Weather View 32 v70,2013-01-16 21:53:00,
2013-01-16 16:58:00,35.0,35.0,29.86,SSE,158,3.0,8.0,100,0.01,,,0.72,Weather View 32 v70,2013-01-16 21:58:00,
2013-01-16 17:03:00,35.0,35.0,29.87,SSE,158,3.0,8.0,100,0.01,,,0.72,Weather View 32 v70,2013-01-16 22:03:00,
2013-01-16 17:08:00,35.0,35.0,29.86,SE,135,3.0,7.0,100,0.01,,,0.72,Weather View 32 v70,2013-01-16 22:08:00,
2013-01-16 17:13:00,35.0,35.0,29.87,SE,135,6.0,7.0,100,0.01,,,0.72,Weather View 32 v70,2013-01-16 22:13:00,
2013-01-16 17:18:00,35.0,35.0,29.87,SSE,158,3.0,7.0,100,0.01,,,0.72,Weather View 32 v70,2013-01-16 22:18:00,
2013-01-16 17:23:00,35.0,35.0,29.87,SE,135,5.0,7.0,100,0.01,,,0.72,Weather View 32 v70,2013-01-16 22:23:00,
2013-01-16 17:28:00,35.0,35.0,29.86,SE,135,3.0,7.0,100,0.01,,,0.72,Weather View 32 v70,2013-01-16 22:28:00,
2013-01-16 17:33:00,35.0,35.0,29.86,SE,135,5.0,7.0,100,0.01,,,0.72,Weather View 32 v70,2013-01-16 22:33:00,
2013-01-16 17:38:00,35.0,35.0,29.86,ESE,112,5.0,8.0,100,0.01,,,0.72,Weather View 32 v70,2013-01-16 22:38:00,
2013-01-16 17:43:00,35.0,35.0,29.87,SSE,158,6.0,8.0,100,0.01,,,0.72,Weather View 32 v70,2013-01-16 22:43:00,
2013-01-16 17:48:00,35.0,35.0,29.86,SE,135,6.0,10.0,100,0.01,,,0.72,Weather View 32 v70,2013-01-16 22:48:00,
2013-01-16 17:53:00,35.0,35.0,29.87,SE,135,5.0,10.0,100,0.00,,,0.72,Weather View 32 v70,2013-01-16 22:53:00,
2013-01-16 17:58:00,35.0,35.0,29.87,SSE,158,4.0,10.0,100,0.01,,,0.73,Weather View 32 v70,2013-01-16 22:58:00,
2013-01-16 18:03:00,35.0,35.0,29.87,SE,135,6.0,10.0,100,0.01,,,0.73,Weather View 32 v70,2013-01-16 23:03:00,
2013-01-16 18:08:00,35.0,35.0,29.86,SE,135,3.0,10.0,100,0.01,,,0.73,Weather View 32 v70,2013-01-16 23:08:00,
2013-01-16 18:13:00,35.0,35.0,29.87,ESE,112,6.0,10.0,100,0.01,,,0.73,Weather View 32 v70,2013-01-16 23:13:00,
2013-01-16 18:18:00,35.0,35.0,29.85,SSE,158,4.0,10.0,100,0.01,,,0.73,Weather View 32 v70,2013-01-16 23:18:00,
2013-01-16 18:23:00,35.0,35.0,29.86,ESE,112,3.0,10.0,100,0.01,,,0.73,Weather View 32 v70,2013-01-16 23:23:00,
2013-01-16 18:28:00,35.0,35.0,29.86,East,90,3.0,10.0,100,0.01,,,0.73,Weather View 32 v70,2013-01-16 23:28:00,
2013-01-16 18:33:00,35.0,35.0,29.86,SE,135,5.0,10.0,100,0.01,,,0.73,Weather View 32 v70,2013-01-16 23:33:00,
2013-01-16 18:38:00,35.0,35.0,29.86,ESE,112,5.0,10.0,100,0.01,,,0.73,Weather View 32 v70,2013-01-16 23:38:00,
2013-01-16 18:43:00,35.0,35.0,29.87,SSE,158,4.0,10.0,100,0.01,,,0.73,Weather View 32 v70,2013-01-16 23:43:00,
2013-01-16 18:48:00,35.0,35.0,29.87,SSE,158,5.0,10.0,100,0.01,,,0.73,Weather View 32 v70,2013-01-16 23:48:00,
2013-01-16 18:53:00,35.0,35.0,29.87,SSE,158,2.0,10.0,100,0.01,,,0.73,Weather View 32 v70,2013-01-16 23:53:00,
2013-01-16 18:58:00,36.0,36.0,29.88,SSE,158,3.0,10.0,100,0.00,,,0.73,Weather View 32 v70,2013-01-16 23:58:00,
2013-01-16 19:03:00,36.0,36.0,29.87,ESE,112,5.0,10.0,100,0.00,,,0.73,Weather View 32 v70,2013-01-17 00:03:00,
2013-01-16 19:08:00,36.0,36.0,29.87,South,180,1.0,10.0,100,0.01,,,0.74,Weather View 32 v70,2013-01-17 00:08:00,
2013-01-16 19:13:00,36.0,36.0,29.87,South,180,3.0,10.0,100,0.01,,,0.74,Weather View 32 v70,2013-01-17 00:13:00,
2013-01-16 19:18:00,36.0,36.0,29.88,SE,135,3.0,10.0,100,0.01,,,0.74,Weather View 32 v70,2013-01-17 00:18:00,
2013-01-16 19:23:00,36.0,36.0,29.88,SE,135,2.0,10.0,100,0.01,,,0.74,Weather View 32 v70,2013-01-17 00:23:00,
2013-01-16 19:28:00,36.0,36.0,29.87,South,180,4.0,10.0,100,0.01,,,0.74,Weather View 32 v70,2013-01-17 00:28:00,
2013-01-16 19:33:00,36.0,36.0,29.87,ESE,112,4.0,10.0,100,0.01,,,0.74,Weather View 32 v70,2013-01-17 00:33:00,
2013-01-16 19:38:00,36.0,36.0,29.87,SE,135,6.0,9.0,100,0.01,,,0.74,Weather View 32 v70,2013-01-17 00:38:00,
2013-01-16 19:43:00,36.0,36.0,29.87,SE,135,6.0,10.0,100,0.01,,,0.74,Weather View 32 v70,2013-01-17 00:43:00,
2013-01-16 19:48:00,36.0,36.0,29.87,SE,135,3.0,10.0,100,0.01,,,0.74,Weather View 32 v70,2013-01-17 00:48:00,
2013-01-16 19:53:00,36.0,36.0,29.87,SSE,158,4.0,10.0,100,0.01,,,0.74,Weather View 32 v70,2013-01-17 00:53:00,
2013-01-16 19:58:00,36.0,36.0,29.87,SSE,158,6.0,10.0,100,0.01,,,0.74,Weather View 32 v70,2013-01-17 00:58:00,
2013-01-16 20:03:00,36.0,36.0,29.88,South,180,6.0,10.0,100,0.01,,,0.74,Weather View 32 v70,2013-01-17 01:03:00,
2013-01-16 20:08:00,36.0,36.0,29.88,South,180,7.0,12.0,100,0.00,,,0.74,Weather View 32 v70,2013-01-17 01:08:00,
2013-01-16 20:13:00,36.0,36.0,29.88,South,180,5.0,12.0,100,0.00,,,0.74,Weather View 32 v70,2013-01-17 01:13:00,
2013-01-16 20:18:00,36.0,36.0,29.89,SSE,158,8.0,12.0,100,0.00,,,0.75,Weather View 32 v70,2013-01-17 01:18:00,
2013-01-16 20:23:00,36.0,36.0,29.88,SSW,202,4.0,12.0,100,0.01,,,0.75,Weather View 32 v70,2013-01-17 01:23:00,
2013-01-16 20:28:00,36.0,36.0,29.89,SSE,158,4.0,12.0,100,0.01,,,0.75,Weather View 32 v70,2013-01-17 01:28:00,
2013-01-16 20:33:00,36.0,36.0,29.88,South,180,3.0,12.0,100,0.01,,,0.75,Weather View 32 v70,2013-01-17 01:33:00,
2013-01-16 20:38:00,36.0,36.0,29.89,SE,135,2.0,12.0,100,0.01,,,0.75,Weather View 32 v70,2013-01-17 01:38:00,
2013-01-16 20:43:00,36.0,36.0,29.89,SSE,158,2.0,12.0,100,0.01,,,0.75,Weather View 32 v70,2013-01-17 01:43:00,
2013-01-16 20:48:00,36.0,36.0,29.88,SSE,158,5.0,12.0,100,0.01,,,0.75,Weather View 32 v70,2013-01-17 01:48:00,
2013-01-16 20:53:00,36.0,36.0,29.88,ESE,112,4.0,12.0,100,0.01,,,0.75,Weather View 32 v70,2013-01-17 01:53:00,
2013-01-16 20:58:00,36.0,36.0,29.89,ESE,112,4.0,12.0,100,0.01,,,0.75,Weather View 32 v70,2013-01-17 01:58:00,
2013-01-16 21:03:00,36.0,36.0,29.88,SE,135,4.0,12.0,100,0.01,,,0.75,Weather View 32 v70,2013-01-17 02:03:00,
2013-01-16 21:08:00,36.0,36.0,29.88,ESE,112,1.0,10.0,100,0.01,,,0.75,Weather View 32 v70,2013-01-17 02:08:00,
2013-01-16 21:13:00,36.0,36.0,29.88,SE,135,6.0,10.0,100,0.01,,,0.75,Weather View 32 v70,2013-01-17 02:13:00,
2013-01-16 21:18:00,36.0,36.0,29.88,SE,135,3.0,10.0,100,0.00,,,0.75,Weather View 32 v70,2013-01-17 02:18:00,
2013-01-16 21:23:00,36.0,36.0,29.88,SE,135,4.0,8.0,100,0.00,,,0.75,Weather View 32 v70,2013-01-17 02:23:00,
2013-01-16 21:28:00,36.0,36.0,29.88,SE,135,3.0,7.0,100,0.00,,,0.75,Weather View 32 v70,2013-01-17 02:28:00,
2013-01-16 21:33:00,36.0,36.0,29.88,ESE,112,5.0,7.0,100,0.00,,,0.75,Weather View 32 v70,2013-01-17 02:33:00,
2013-01-16 21:38:00,36.0,36.0,29.88,East,90,3.0,7.0,100,0.00,,,0.75,Weather View 32 v70,2013-01-17 02:38:00,
2013-01-16 21:43:00,36.0,36.0,29.88,ESE,112,5.0,7.0,100,0.00,,,0.75,Weather View 32 v70,2013-01-17 02:43:00,
2013-01-16 21:48:00,36.0,36.0,29.87,SE,135,5.0,7.0,100,0.00,,,0.75,Weather View 32 v70,2013-01-17 02:48:00,
2013-01-16 21:53:00,36.0,36.0,29.88,SE,135,4.0,7.0,100,0.00,,,0.75,Weather View 32 v70,2013-01-17 02:53:00,
2013-01-16 21:58:00,36.0,36.0,29.86,SE,135,3.0,7.0,100,-0.68,,,0.75,Weather View 32 v70,2013-01-17 02:58:00,
2013-01-16 22:03:00,36.0,36.0,29.87,ESE,112,3.0,7.0,100,0.00,,,0.75,Weather View 32 v70,2013-01-17 03:03:00,
2013-01-16 22:08:00,36.0,36.0,29.87,ESE,112,3.0,7.0,100,0.00,,,0.75,Weather View 32 v70,2013-01-17 03:08:00,
2013-01-16 22:13:00,36.0,36.0,29.88,SE,135,5.0,7.0,100,-0.68,,,0.75,Weather View 32 v70,2013-01-17 03:13:00,
2013-01-16 22:18:00,36.0,36.0,29.88,SE,135,4.0,7.0,100,-0.68,,,0.75,Weather View 32 v70,2013-01-17 03:18:00,
2013-01-16 22:23:00,36.0,36.0,29.88,ESE,112,3.0,7.0,100,0.00,,,0.75,Weather View 32 v70,2013-01-17 03:23:00,
2013-01-16 22:28:00,36.0,36.0,29.88,SE,135,5.0,7.0,100,-0.67,,,0.75,Weather View 32 v70,2013-01-17 03:28:00,
2013-01-16 22:33:00,36.0,36.0,29.88,SSE,158,3.0,7.0,100,0.00,,,0.75,Weather View 32 v70,2013-01-17 03:33:00,
2013-01-16 22:38:00,36.0,36.0,29.88,ESE,112,4.0,7.0,100,0.00,,,0.75,Weather View 32 v70,2013-01-17 03:38:00,
2013-01-16 22:43:00,36.0,36.0,29.88,SE,135,1.0,7.0,100,0.00,,,0.75,Weather View 32 v70,2013-01-17 03:43:00,
2013-01-16 22:48:00,36.0,36.0,29.88,ESE,112,3.0,6.0,100,0.00,,,0.75,Weather View 32 v70,2013-01-17 03:48:00,
2013-01-16 22:53:00,36.0,36.0,29.89,ESE,112,1.0,6.0,100,0.00,,,0.75,Weather View 32 v70,2013-01-17 03:53:00,
2013-01-16 22:58:00,36.0,36.0,29.88,ESE,112,3.0,6.0,100,0.00,,,0.75,Weather View 32 v70,2013-01-17 03:58:00,
2013-01-16 23:03:00,36.0,36.0,29.89,ESE,112,3.0,6.0,100,0.00,,,0.75,Weather View 32 v70,2013-01-17 04:03:00,
2013-01-16 23:08:00,36.0,36.0,29.88,East,90,3.0,6.0,100,0.00,,,0.75,Weather View 32 v70,2013-01-17 04:08:00,
2013-01-16 23:13:00,36.0,36.0,29.89,SE,135,3.0,6.0,100,0.00,,,0.75,Weather View 32 v70,2013-01-17 04:13:00,
2013-01-16 23:18:00,36.0,36.0,29.89,ESE,112,1.0,6.0,100,0.00,,,0.75,Weather View 32 v70,2013-01-17 04:18:00,
2013-01-16 23:23:00,36.0,36.0,29.88,NNE,22,1.0,6.0,100,0.00,,,0.75,Weather View 32 v70,2013-01-17 04:23:00,
2013-01-16 23:28:00,36.0,36.0,29.88,East,90,3.0,6.0,100,0.00,,,0.75,Weather View 32 v70,2013-01-17 04:28:00,
2013-01-16 23:33:00,36.0,36.0,29.89,ESE,112,3.0,6.0,100,0.00,,,0.75,Weather View 32 v70,2013-01-17 04:33:00,
2013-01-16 23:38:00,36.0,36.0,29.88,ESE,112,5.0,6.0,100,0.00,,,0.75,Weather View 32 v70,2013-01-17 04:38:00,
2013-01-16 23:43:00,36.0,36.0,29.89,ESE,112,3.0,6.0,100,0.00,,,0.75,Weather View 32 v70,2013-01-17 04:43:00,
2013-01-16 23:48:00,36.0,36.0,29.89,East,90,5.0,6.0,100,-0.63,,,0.76,Weather View 32 v70,2013-01-17 04:48:00,
2013-01-16 23:53:00,36.0,36.0,29.88,ESE,112,3.0,6.0,100,-0.63,,,0.76,Weather View 32 v70,2013-01-17 04:53:00,
2013-01-16 23:58:00,37.0,37.0,29.88,ESE,112,2.0,6.0,100,0.01,,,0.00,Weather View 32 v70,2013-01-17 04:58:00,